Flag for Germany Weather past 2 weeks in Bitburg, Rhineland-Palatinate, Germany

Now
50 °F

Passing clouds.


Feels Like: 48 °F
Forecast: 47 / 60 °F
Wind: 5 mph from West

Location: Spangdahlem

Current Time: Sep 4, 2015 at 3:40:29 AM

Latest Report: Sep 4, 2015 at 2:58 AM


Visibility: N/A

Pressure: 29.97 "Hg

Humidity: 96%

Dew point: 49 °F

Location of BitburgLocation

Historic Weather in Bitburg — Graph

°F

Bitburg temperature yesterday

Maximum temperature yesterday: 64 °F (at 4:58 PM)
Minimum temperature yesterday: 48 °F (at 2:58 AM)
Average temperature yesterday: 55 °F

Past Weeks' High & Low Weather Summary

 TemperatureHumidityPressure
High87 °F (Aug 30, 5:58 PM)100% (Aug 23, 7:04 PM)30.23 "Hg (Aug 23, 7:04 PM)
Low47 °F (Aug 20, 5:58 AM)31% (Aug 31, 4:58 PM)29.58 "Hg (Aug 24, 12:58 PM)
Average64 °F76%29.95 "Hg
* Reported Aug 20 1:58 AM — Sep 4 1:58 AM, Bitburg, Weather by CustomWeather, © 2015

Note: Actual official high and low records may vary slightly from our data, if they occured in-between our weather recording intervals... More about our weather records

Advertising

Bitburg weather history for previous 24 hours

 ConditionsComfort  
Time TempWeatherWind HumidityBarometerVisibility
1:58 AM
Fri, Sep 4
51 °FPassing clouds.3 mph92%29.96 "HgN/A
12:58 AM52 °FOvercast.5 mph87%29.96 "HgN/A
11:58 PM
Thu, Sep 3
52 °FPassing clouds.No wind88%29.96 "HgN/A
10:58 PM51 °FOvercast.1 mph93%29.97 "HgN/A
9:58 PM52 °FPassing clouds.No wind94%29.96 "HgN/A
8:58 PM54 °FPartly sunny.5 mph82%29.96 "HgN/A
8:03 PM54 °FDrizzle. Partly sunny.16 mph82%29.98 "HgN/A
7:58 PM56 °FDrizzle. Partly sunny.18 mph74%29.94 "HgN/A
6:58 PM61 °FSunny.8 mph53%29.93 "HgN/A
5:58 PM61 °FPassing clouds.6 mph53%29.93 "HgN/A
4:58 PM64 °FPassing clouds.8 mph46%29.92 "HgN/A
3:58 PM62 °FPassing clouds.9 mph51%29.92 "HgN/A
2:58 PM62 °FPassing clouds.13 mph55%29.94 "HgN/A
2:03 PM63 °FBroken clouds.9 mph56%29.97 "HgN/A
1:58 PM62 °FBroken clouds.10 mph55%29.94 "HgN/A
12:58 PM62 °FScattered clouds.14 mph60%29.95 "HgN/A
11:58 AM60 °FSunny.10 mph68%29.94 "HgN/A
10:58 AM58 °FScattered clouds.3 mph78%29.99 "HgN/A
9:58 AM55 °FScattered clouds.3 mph84%29.98 "HgN/A
8:58 AM52 °FScattered clouds.2 mph100%29.98 "HgN/A
7:58 AM51 °FOvercast.No wind99%29.98 "HgN/A
6:58 AM50 °FMostly cloudy.No wind98%29.97 "HgN/A
6:02 AM50 °FFog.1 mph100%29.97 "Hg4 mi
5:58 AM50 °FFog.3 mph98%29.97 "Hg6 mi
4:58 AM50 °FOvercast.2 mph100%29.98 "HgN/A
3:58 AM49 °FPassing clouds.2 mph99%29.99 "HgN/A
Weather by CustomWeather, © 2015

See weather overviewHow to use our weather pages